FW2804 Weather Reports


Display with metric or nautical units.
time (UTC)temp
F
wind
direction
speed
MPH
gust
MPH
rain 1hr
in
rain 24hr
in
rain mn
in
humidity
%
barometer
mb
20200403081822 25 354 23.0 30.0 0.00 0.00 0.00 69 1019.7
20200403081323 25 4 22.0 28.0 0.00 0.00 0.00 69 1019.7
20200403080821 25 4 20.0 31.0 0.00 0.00 0.00 69 1020.0
20200403080321 25 4 20.0 31.0 0.00 0.00 0.00 70 1020.0
20200403075820 25 4 23.0 30.0 0.00 0.00 0.00 70 1020.0
20200403075319 25 350 21.0 33.0 0.00 0.00 0.00 71 1019.8
20200403074822 26 359 25.0 34.0 0.00 0.00 0.00 70 1019.9
20200403074320 26 354 27.0 34.0 0.00 0.00 0.00 70 1019.5
20200403073822 26 346 26.0 32.0 0.00 0.00 0.00 70 1019.8
20200403073328 26 9 25.0 32.0 0.00 0.00 0.00 69 1019.8
20200403072821 26 359 23.0 34.0 0.00 0.00 0.00 70 1019.8
20200403072320 27 359 27.0 34.0 0.00 0.00 0.00 70 1019.3
20200403071824 27 359 24.0 34.0 0.00 0.00 0.00 72 1019.7
20200403071322 27 359 24.0 35.0 0.00 0.00 0.00 72 1019.6
20200403070820 27 354 28.0 35.0 0.00 0.00 0.00 72 1019.1
20200403070323 27 350 28.0 32.0 0.00 0.00 0.00 72 1019.0
20200403065822 27 359 22.0 32.0 0.00 0.00 0.00 73 1019.2
20200403065317 27 359 24.0 32.0 0.00 0.00 0.00 73 1019.3
20200403064825 28 14 23.0 32.0 0.00 0.00 0.00 74 1019.3
20200403064318 27 4 24.0 32.0 0.00 0.00 0.00 75 1019.1
20200403063821 27 4 24.0 30.0 0.00 0.00 0.00 75 1019.3
20200403063324 27 359 22.0 27.0 0.00 0.00 0.00 75 1019.4
20200403062819 27 4 21.0 28.0 0.00 0.00 0.00 76 1019.0
20200403062321 27 354 21.0 30.0 0.00 0.00 0.00 76 1018.9
20200403061824 27 4 21.0 30.0 0.00 0.00 0.00 76 1019.1
20200403061324 27 8 22.0 28.0 0.00 0.00 0.00 76 1019.2
20200403060826 27 10 17.0 28.0 0.00 0.00 0.00 76 1019.3
20200403060326 27 4 20.0 28.0 0.00 0.00 0.00 76 1018.9
20200403055820 27 8 21.0 27.0 0.00 0.00 0.00 76 1018.9
20200403055318 27 4 21.0 27.0 0.00 0.00 0.00 76 1018.8
20200403054828 27 4 17.0 30.0 0.00 0.00 0.00 76 1018.7
20200403054324 27 14 23.0 30.0 0.00 0.00 0.00 76 1018.3
20200403053824 28 13 24.0 30.0 0.00 0.00 0.00 75 1017.8
20200403053328 28 21 25.0 30.0 0.00 0.00 0.00 75 1018.3
20200403052821 28 8 25.0 30.0 0.00 0.00 0.00 75 1018.3
20200403052324 28 354 21.0 36.0 0.00 0.00 0.00 75 1018.3
20200403051826 28 15 28.0 36.0 0.00 0.00 0.00 75 1017.7
20200403051321 28 14 27.0 33.0 0.00 0.00 0.00 75 1017.5
20200403050820 28 12 27.0 33.0 0.00 0.00 0.00 74 1017.1
20200403050326 28 9 27.0 35.0 0.00 0.00 0.00 75 1017.5
20200403045822 28 359 28.0 35.0 0.00 0.00 0.00 75 1017.4
20200403045323 28 16 25.0 32.0 0.00 0.00 0.00 74 1017.4
20200403044827 29 16 25.0 32.0 0.00 0.00 0.00 74 1017.5
20200403044321 29 16 24.0 32.0 0.00 0.00 0.00 74 1017.5
20200403043822 29 10 22.0 35.0 0.00 0.00 0.00 73 1017.8
20200403043328 29 11 23.0 35.0 0.00 0.00 0.00 73 1017.5
20200403042822 29 15 25.0 36.0 0.00 0.00 0.00 73 1017.6
20200403042321 30 359 25.0 36.0 0.00 0.00 0.00 72 1016.6
20200403041829 30 354 24.0 34.0 0.00 0.00 0.00 72 1017.3
20200403041321 30 8 23.0 32.0 0.00 0.00 0.00 72 1017.3
20200403040822 30 14 18.0 30.0 0.00 0.00 0.00 72 1017.4
20200403040337 30 16 25.0 31.0 0.00 0.00 0.00 72 1017.4
20200403035822 30 9 25.0 31.0 0.00 0.00 0.00 72 1016.8
20200403035323 31 17 22.0 33.0 0.00 0.00 0.00 71 1016.9
20200403034832 31 12 25.0 36.0 0.00 0.00 0.00 71 1016.9
20200403034323 31 13 25.0 36.0 0.00 0.00 0.00 71 1016.7
20200403033821 31 17 27.0 34.0 0.00 0.00 0.00 71 1017.0
20200403033331 31 20 26.0 33.0 0.00 0.00 0.00 71 1016.9
20200403032822 31 13 18.0 29.0 0.00 0.00 0.00 70 1017.1
20200403032324 31 10 22.0 33.0 0.00 0.00 0.00 70 1016.9
20200403031833 31 19 20.0 34.0 0.00 0.00 0.00 70 1016.8
20200403031323 31 16 27.0 34.0 0.00 0.00 0.00 71 1015.8
20200403030821 31 8 20.0 36.0 0.00 0.00 0.00 70 1016.1
20200403030338 31 12 28.0 36.0 0.00 0.00 0.00 70 1015.4
20200403025821 32 18 22.0 33.0 0.00 0.00 0.00 70 1015.9
20200403025321 32 4 23.0 33.0 0.00 0.00 0.00 70 1015.8
20200403024829 32 9 25.0 33.0 0.00 0.00 0.00 70 1015.4
20200403024323 32 4 22.0 32.0 0.00 0.00 0.00 68 1015.4
20200403023821 33 23 23.0 33.0 0.00 0.00 0.00 66 1015.2
20200403023332 33 4 25.0 34.0 0.00 0.00 0.00 65 1014.6
20200403022819 34 19 23.0 29.0 0.00 0.00 0.00 65 1015.0
20200403022327 34 10 20.0 30.0 0.00 0.00 0.00 65 1015.4
20200403021837 35 16 25.0 30.0 0.00 0.00 0.00 65 1015.2
20200403021322 35 27 23.0 31.0 0.00 0.00 0.00 65 1014.2
20200403020823 36 12 24.0 31.0 0.00 0.00 0.00 65 1013.5
20200403020336 36 18 22.0 30.0 0.00 0.00 0.00 65 1013.9
20200403015824 37 17 22.0 29.0 0.00 0.00 0.00 64 1013.6
20200403015321 37 31 23.0 30.0 0.00 0.00 0.00 64 1013.4
20200403014831 38 25 23.0 31.0 0.00 0.00 0.00 63 1013.4
20200403014321 38 21 17.0 27.0 0.00 0.00 0.00 63 1013.4
20200403013825 39 27 20.0 27.0 0.00 0.00 0.00 63 1013.2
20200403013332 39 31 19.0 29.0 0.00 0.00 0.00 62 1013.0
20200403012825 40 33 21.0 29.0 0.00 0.00 0.00 62 1012.7
20200403012322 40 43 22.0 30.0 0.00 0.00 0.00 61 1012.7
20200403011837 41 39 23.0 29.0 0.00 0.00 0.00 60 1012.2
20200403011326 41 26 21.0 30.0 0.00 0.00 0.00 60 1012.8
20200403010821 42 18 19.0 27.0 0.00 0.00 0.00 59 1012.3
20200403010336 42 42 22.0 29.0 0.00 0.00 0.00 59 1012.2
20200403005821 43 31 17.0 28.0 0.00 0.00 0.00 59 1012.3
20200403005324 43 29 20.0 30.0 0.00 0.00 0.00 58 1011.9
20200403004834 44 26 22.0 27.0 0.00 0.00 0.00 57 1011.9
20200403004320 45 39 21.0 28.0 0.00 0.00 0.00 57 1011.8
20200403003823 46 52 22.0 30.0 0.00 0.00 0.00 56 1011.4
20200403003356 46 42 23.0 30.0 0.00 0.00 0.00 55 1011.2
20200403002820 47 33 22.0 31.0 0.00 0.00 0.00 55 1010.9
20200403002321 48 48 24.0 31.0 0.00 0.00 0.00 54 1011.0
20200403001837 48 54 24.0 33.0 0.00 0.00 0.00 53 1010.4
20200403001323 49 55 26.0 33.0 0.00 0.00 0.00 53 1010.2
20200403000823 50 39 20.0 31.0 0.00 0.00 0.00 52 1010.3
20200403000336 51 52 22.0 31.0 0.00 0.00 0.00 51 1010.3
20200402235823 51 41 21.0 30.0 0.00 0.00 0.00 51 1010.3
20200402235323 51 58 25.0 31.0 0.00 0.00 0.00 50 1009.8
20200402234841 52 53 25.0 31.0 0.00 0.00 0.00 49 1010.1
20200402234323 53 43 25.0 31.0 0.00 0.00 0.00 48 1010.4
20200402233821 53 39 24.0 32.0 0.00 0.00 0.00 48 1009.3
20200402233331 54 48 23.0 32.0 0.00 0.00 0.00 48 1009.8
20200402232821 55 58 23.0 31.0 0.00 0.00 0.00 48 1009.8
20200402232326 55 65 21.0 30.0 0.00 0.00 0.00 47 1009.8
20200402231834 55 65 23.0 31.0 0.00 0.00 0.00 46 1009.7
20200402231322 55 58 22.0 32.0 0.00 0.00 0.00 47 1009.5
20200402230822 56 54 26.0 32.0 0.00 0.00 0.00 45 1009.2
20200402230339 56 56 22.0 31.0 0.00 0.00 0.00 47 1009.3
20200402225825 56 56 24.0 30.0 0.00 0.00 0.00 45 1009.1
20200402225324 57 54 21.0 31.0 0.00 0.00 0.00 45 1009.7
20200402224836 57 56 26.0 31.0 0.00 0.00 0.00 44 1009.0
20200402224324 59 69 20.0 32.0 0.00 0.00 0.00 45 1009.1
20200402223827 59 55 22.0 32.0 0.00 0.00 0.00 45 1009.0
20200402223337 60 58 22.0 29.0 0.00 0.00 0.00 43 1009.0
20200402222820 61 72 21.0 32.0 0.00 0.00 0.00 43 1008.7
20200402222325 60 66 24.0 31.0 0.00 0.00 0.00 43 1008.2
20200402221838 61 73 23.0 31.0 0.00 0.00 0.00 43 1008.2
20200402221323 61 61 24.0 32.0 0.00 0.00 0.00 42 1008.1
20200402220823 62 66 23.0 32.0 0.00 0.00 0.00 41 1008.3
20200402220338 63 78 23.0 30.0 0.00 0.00 0.00 40 1008.1
20200402215824 64 79 23.0 32.0 0.00 0.00 0.00 39 1007.8
20200402215322 64 65 19.0 30.0 0.00 0.00 0.00 39 1007.7
20200402214835 64 73 22.0 28.0 0.00 0.00 0.00 39 1007.4
20200402214321 65 74 23.0 30.0 0.00 0.00 0.00 38 1007.6
20200402213824 65 74 21.0 30.0 0.00 0.00 0.00 37 1007.4
20200402213336 64 79 24.0 31.0 0.00 0.00 0.00 38 1007.5
20200402212823 64 83 24.0 31.0 0.00 0.00 0.00 38 1007.4
20200402212322 65 81 22.0 29.0 0.00 0.00 0.00 37 1007.8
20200402211836 65 76 22.0 30.0 0.00 0.00 0.00 38 1007.9
20200402211326 65 84 20.0 26.0 0.00 0.00 0.00 38 1007.8
20200402210820 66 88 21.0 26.0 0.00 0.00 0.00 36 1007.8
20200402210341 66 69 18.0 25.0 0.00 0.00 0.00 35 1007.9
20200402205822 65 78 18.0 25.0 0.00 0.00 0.00 36 1008.0
20200402205330 66 66 19.0 27.0 0.00 0.00 0.00 36 1008.0
20200402204839 66 88 17.0 29.0 0.00 0.00 0.00 37 1008.0
20200402204324 66 68 22.0 29.0 0.00 0.00 0.00 36 1008.1
20200402203825 66 60 19.0 27.0 0.00 0.00 0.00 37 1008.1
20200402203337 66 101 21.0 26.0 0.00 0.00 0.00 37 1008.0
20200402202821 66 68 19.0 25.0 0.00 0.00 0.00 36 1008.2
20200402202323 67 71 16.0 26.0 0.00 0.00 0.00 35 1008.4
20200402201837 67 73 20.0 30.0 0.00 0.00 0.00 35 1008.2
20200402201321 67 59 21.0 27.0 0.00 0.00 0.00 37 1007.8
20200402200826 68 68 18.0 26.0 0.00 0.00 0.00 34 1008.2
20200402200346 67 80 19.0 26.0 0.00 0.00 0.00 36 1008.3
20200402195820 67 65 20.0 26.0 0.00 0.00 0.00 35 1008.3
20200402195325 68 75 17.0 22.0 0.00 0.00 0.00 33 1008.2
20200402194840 69 79 14.0 19.0 0.00 0.00 0.00 32 1008.3
20200402194322 68 78 11.0 17.0 0.00 0.00 0.00 34 1008.3
20200402193824 70 106 12.0 16.0 0.00 0.00 0.00 31 1009.0
20200402193343 73 37 3.0 20.0 0.00 0.00 0.00 14 1008.6
20200402192824 74 213 16.0 20.0 0.00 0.00 0.00 15 1008.3
20200402192327 74 197 8.0 19.0 0.00 0.00 0.00 14 1008.5
20200402191840 73 160 5.0 24.0 0.00 0.00 0.00 15 1008.6
20200402191333 73 189 10.0 24.0 0.00 0.00 0.00 15 1008.7
20200402190825 74 217 17.0 27.0 0.00 0.00 0.00 15 1008.5
20200402190341 73 272 9.0 27.0 0.00 0.00 0.00 14 1008.7
20200402185827 73 224 14.0 24.0 0.00 0.00 0.00 14 1008.5
20200402185321 73 268 7.0 23.0 0.00 0.00 0.00 14 1008.8
20200402184838 74 274 15.0 26.0 0.00 0.00 0.00 14 1008.9
20200402184327 73 289 14.0 26.0 0.00 0.00 0.00 14 1008.7
20200402183827 73 270 17.0 27.0 0.00 0.00 0.00 13 1008.9
20200402183343 73 287 13.0 27.0 0.00 0.00 0.00 14 1008.9
20200402182826 73 245 15.0 24.0 0.00 0.00 0.00 13 1008.9
20200402182320 73 239 15.0 29.0 0.00 0.00 0.00 14 1009.0
20200402181843 73 261 20.0 29.0 0.00 0.00 0.00 14 1009.0
20200402181324 73 261 16.0 29.0 0.00 0.00 0.00 14 1008.8
20200402180826 73 242 17.0 29.0 0.00 0.00 0.00 13 1009.0
20200402180346 72 265 11.0 25.0 0.00 0.00 0.00 15 1009.1
20200402175828 73 268 18.0 26.0 0.00 0.00 0.00 14 1009.2
20200402175324 73 240 15.0 26.0 0.00 0.00 0.00 16 1009.2
20200402174841 72 259 17.0 24.0 0.00 0.00 0.00 14 1009.1
20200402174323 73 270 15.0 23.0 0.00 0.00 0.00 14 1009.3
20200402173822 72 253 15.0 29.0 0.00 0.00 0.00 15 1009.0
20200402173400 72 258 18.0 29.0 0.00 0.00 0.00 14 1009.3
20200402172823 72 274 17.0 27.0 0.00 0.00 0.00 15 1009.3
20200402172325 72 249 20.0 27.0 0.00 0.00 0.00 14 1009.0
20200402171838 72 237 14.0 25.0 0.00 0.00 0.00 17 1009.3
20200402171328 72 241 17.0 25.0 0.00 0.00 0.00 15 1009.3
20200402170825 71 253 18.0 27.0 0.00 0.00 0.00 16 1009.4
20200402170342 71 235 21.0 27.0 0.00 0.00 0.00 17 1009.3
20200402165825 71 258 22.0 27.0 0.00 0.00 0.00 16 1009.2
20200402165324 71 258 20.0 28.0 0.00 0.00 0.00 15 1009.2
20200402164841 71 241 19.0 29.0 0.00 0.00 0.00 17 1009.0
20200402164326 71 248 20.0 29.0 0.00 0.00 0.00 17 1009.3
20200402163829 71 246 19.0 28.0 0.00 0.00 0.00 16 1009.3
20200402163337 71 262 21.0 32.0 0.00 0.00 0.00 17 1009.4
20200402162826 71 266 22.0 32.0 0.00 0.00 0.00 16 1009.2
20200402162324 71 253 25.0 33.0 0.00 0.00 0.00 15 1009.3
20200402161842 71 249 24.0 33.0 0.00 0.00 0.00 15 1009.2
20200402161322 71 262 22.0 33.0 0.00 0.00 0.00 16 1009.2
20200402160825 70 266 25.0 34.0 0.00 0.00 0.00 16 1009.2
20200402160341 70 259 24.0 34.0 0.00 0.00 0.00 17 1009.2
20200402155825 70 247 24.0 29.0 0.00 0.00 0.00 17 1009.3
20200402155325 70 249 22.0 31.0 0.00 0.00 0.00 18 1009.1
20200402154839 69 263 22.0 31.0 0.00 0.00 0.00 19 1008.9
20200402154324 69 260 21.0 30.0 0.00 0.00 0.00 18 1009.1
20200402153824 69 256 19.0 27.0 0.00 0.00 0.00 20 1009.0
20200402153336 69 262 18.0 31.0 0.00 0.00 0.00 19 1009.3
20200402152829 68 264 21.0 31.0 0.00 0.00 0.00 20 1009.4
20200402152326 67 266 17.0 25.0 0.00 0.00 0.00 22 1009.3
20200402151840 66 264 16.0 23.0 0.00 0.00 0.00 24 1009.2
20200402151325 64 268 12.0 20.0 0.00 0.00 0.00 27 1009.2
20200402150821 63 272 15.0 21.0 0.00 0.00 0.00 26 1009.3
20200402150340 63 268 13.0 19.0 0.00 0.00 0.00 28 1009.2
20200402145828 62 262 14.0 19.0 0.00 0.00 0.00 29 1009.2
20200402145322 61 264 12.0 19.0 0.00 0.00 0.00 30 1009.0
20200402144840 60 266 15.0 24.0 0.00 0.00 0.00 30 1008.9
20200402144326 59 258 17.0 24.0 0.00 0.00 0.00 31 1009.0
20200402143823 59 256 17.0 24.0 0.00 0.00 0.00 32 1008.9
20200402143343 58 246 16.0 20.0 0.00 0.00 0.00 34 1009.0
20200402142822 57 258 14.0 20.0 0.00 0.00 0.00 35 1008.6
20200402142322 55 254 16.0 20.0 0.00 0.00 0.00 37 1008.6
20200402141843 52 249 14.0 18.0 0.00 0.00 0.00 40 1008.6
20200402141329 52 256 15.0 19.0 0.00 0.00 0.00 39 1008.7
20200402140823 52 256 14.0 19.0 0.00 0.00 0.00 39 1008.7
20200402140345 51 260 13.0 17.0 0.00 0.00 0.00 40 1008.8
20200402135828 51 256 14.0 17.0 0.00 0.00 0.00 40 1008.8
20200402135323 51 264 10.0 16.0 0.00 0.00 0.00 40 1008.8
20200402134813 51 266 13.0 16.0 0.00 0.00 0.00 39 1008.7
20200402134311 51 268 12.0 17.0 0.00 0.00 0.00 39 1008.6
20200402133812 51 266 12.0 14.0 0.00 0.00 0.00 39 1008.5
20200402133311 51 265 11.0 14.0 0.00 0.00 0.00 41 1008.5
20200402132816 50 260 10.0 13.0 0.00 0.00 0.00 42 1008.5
20200402132313 50 265 11.0 13.0 0.00 0.00 0.00 42 1008.4
20200402131811 49 270 10.0 12.0 0.00 0.00 0.00 43 1008.3
20200402131314 48 264 10.0 12.0 0.00 0.00 0.00 44 1008.3
20200402130813 46 256 8.0 11.0 0.00 0.00 0.00 48 1008.4
20200402130312 45 254 8.0 12.0 0.00 0.00 0.00 49 1008.2
20200402125813 45 245 9.0 12.0 0.00 0.00 0.00 49 1008.1
20200402125317 44 242 10.0 12.0 0.00 0.00 0.00 50 1008.1
20200402124811 43 242 9.0 10.0 0.00 0.00 0.00 51 1008.1
20200402124313 43 251 7.0 9.0 0.00 0.00 0.00 49 1007.9
20200402123813 44 255 7.0 10.0 0.00 0.00 0.00 48 1007.8
20200402123315 44 256 8.0 10.0 0.00 0.00 0.00 47 1007.8
20200402122811 45 264 8.0 9.0 0.00 0.00 0.00 46 1007.7
20200402122313 45 266 7.0 10.0 0.00 0.00 0.00 45 1007.8
20200402121819 46 266 8.0 10.0 0.00 0.00 0.00 44 1007.7
20200402121312 46 270 8.0 11.0 0.00 0.00 0.00 43 1007.6
20200402120812 47 273 9.0 11.0 0.00 0.00 0.00 42 1007.6
20200402120321 47 278 9.0 11.0 0.00 0.00 0.00 42 1007.6
20200402115813 47 281 9.0 11.0 0.00 0.00 0.00 42 1007.5
20200402115314 47 283 10.0 11.0 0.00 0.00 0.00 42 1007.5
20200402114815 47 283 9.0 11.0 0.00 0.00 0.00 42 1007.5
20200402114313 46 285 9.0 10.0 0.00 0.00 0.00 43 1007.5
20200402113817 46 289 8.0 10.0 0.00 0.00 0.00 43 1007.5
20200402113316 46 288 8.0 10.0 0.00 0.00 0.00 43 1007.4
20200402112813 46 289 8.0 10.0 0.00 0.00 0.00 43 1007.4
20200402112311 46 289 7.0 9.0 0.00 0.00 0.00 43 1007.5
20200402111815 46 289 7.0 10.0 0.00 0.00 0.00 44 1007.4
20200402111316 45 289 8.0 10.0 0.00 0.00 0.00 44 1007.3
20200402110812 45 287 8.0 9.0 0.00 0.00 0.00 45 1007.3
20200402110315 45 287 7.0 9.0 0.00 0.00 0.00 45 1007.3
20200402105813 44 284 7.0 9.0 0.00 0.00 0.00 46 1007.2
20200402105312 44 278 6.0 8.0 0.00 0.00 0.00 47 1007.1
20200402104815 43 276 7.0 8.0 0.00 0.00 0.00 48 1007.2
20200402104315 43 276 6.0 9.0 0.00 0.00 0.00 48 1007.2
20200402103817 44 276 7.0 10.0 0.00 0.00 0.00 47 1007.0
20200402103314 43 276 8.0 10.0 0.00 0.00 0.00 47 1006.9
20200402102813 43 275 8.0 10.0 0.00 0.00 0.00 48 1006.8
20200402102314 43 272 8.0 9.0 0.00 0.00 0.00 48 1006.9
20200402101813 43 267 8.0 9.0 0.00 0.00 0.00 48 1006.9
20200402101317 44 264 8.0 9.0 0.00 0.00 0.00 47 1006.8
20200402100813 43 264 8.0 9.0 0.00 0.00 0.00 48 1006.8
20200402100317 42 265 8.0 9.0 0.00 0.00 0.00 50 1006.9
20200402095815 41 266 7.0 9.0 0.00 0.00 0.00 52 1006.8
20200402095321 41 266 7.0 9.0 0.00 0.00 0.00 52 1006.7
20200402094813 42 267 8.0 9.0 0.00 0.00 0.00 49 1006.9
20200402094314 43 271 8.0 9.0 0.00 0.00 0.00 48 1006.9
20200402093816 43 278 7.0 10.0 0.00 0.00 0.00 47 1006.9
20200402093316 43 279 8.0 9.0 0.00 0.00 0.00 48 1006.7
20200402092816 43 279 8.0 9.0 0.00 0.00 0.00 48 1006.7
20200402092315 43 280 7.0 10.0 0.00 0.00 0.00 48 1006.6
20200402091810 43 282 8.0 10.0 0.00 0.00 0.00 48 1006.6
20200402091315 42 281 7.0 10.0 0.00 0.00 0.00 48 1006.4
20200402090814 42 280 8.0 10.0 0.00 0.00 0.00 48 1006.4
20200402090312 42 280 8.0 10.0 0.00 0.00 0.00 49 1006.4
20200402085812 42 280 8.0 9.0 0.00 0.00 0.00 50 1006.3
20200402085314 41 279 8.0 10.0 0.00 0.00 0.00 51 1006.3
20200402084813 41 280 8.0 11.0 0.00 0.00 0.00 51 1006.4
20200402084311 41 280 9.0 11.0 0.00 0.00 0.00 51 1006.4
20200402083817 41 280 8.0 10.0 0.00 0.00 0.00 51 1006.6
20200402083313 40 280 8.0 10.0 0.00 0.00 0.00 52 1006.7
20200402082816 40 280 9.0 10.0 0.00 0.00 0.00 53 1006.6
20200402082316 40 277 8.0 9.0 0.00 0.00 0.00 54 1006.7